Tracking 35275 objects as of 8-Sep-2026
HD Live streaming from Space Station
objects crossing your sky now

STARLINK-3567

Track STARLINK-3567 now!
10-day predictions
STARLINK-3567 is classified as:


NORAD ID: 51871
Int'l Code: 2022-022V
Launch date: March 3, 2022
Source: United States (US)
Launch site: AIR FORCE EASTERN TEST RANGE (AFETR)
Your satellite tracking list
Your tracking list is empty




NASA's NSSDC Master Catalog

Two Line Element Set (TLE):
1 51871U 22022V   26251.04779338  .00000622  00000-0  29547-4 0  9998
2 51871  53.1590 262.2739 0001133  81.8215 278.2916 15.34393739250864
Source of the keplerian elements: AFSPC